[[{"header":{"parameterUnit":"m.s-1","parameterCategory":1,"la1":30.2991,"la2":30.254,"lo1":-89.0895,"lo2":-89.0444,"dy":0.0017,"dx":0.0017,"nx":28,"ny":28,"refTime":"2025-01-04T09:00:00:Z","depth":0,"parameterNumber":2,"parameterNumberName":"U-component_of_WINDS"},"data":[0,0,0,0,0,0,0,0,0,0,0,0,0,0,0,0,0,0,0,0,0,0,0,0,0,0,0,0,0,0,0,0,0,0,0,0,0,0,0,0,0,0,0,0,0,0,0,0,0,0,0,0,0,0,0,0,0,0,-4.1146,-4.1147,0,-4.1226,-4.1227,-4.1228,-4.1121,-4.1117,-4.1113,-4.1109,-4.1194,-4.1199,-4.1205,0,0,0,0,0,0,0,0,0,0,0,0,0,-4.0901,-4.0906,-4.1146,-4.1147,-4.1148,-4.1226,-4.1227,-4.1228,-4.1122,-4.1117,-4.1112,-4.1108,-4.1192,-4.1199,-4.1206,0,0,0,0,0,0,0,0,0,0,0,0,0,-4.0997,-4.0908,-4.1145,-4.1104,-4.1101,-4.1226,-4.1227,-4.1228,-4.1123,-4.1117,-4.1111,-4.1105,-4.119,-4.1198,-4.1207,-4.1377,0,0,-4.1233,-4.1237,0,0,0,0,0,0,0,0,-4.0992,-4.1006,-4.1109,-4.1107,-4.1104,-4.1157,-4.1171,-4.1278,-4.1124,-4.1114,-4.1109,-4.1103,-4.1186,-4.1195,-4.1223,-4.1381,-4.1384,-4.1234,-4.124,-4.1243,-4.1246,0,0,0,0,0,0,0,-4.0985,-4.1002,-4.1177,-4.1111,-4.1108,-4.1082,-4.1089,-4.1191,-4.1182,-4.1115,-4.1107,-4.1118,-4.1184,-4.1215,-4.1224,-4.1386,-4.1234,-4.1242,-4.1247,-4.1251,-4.1687,-4.1693,0,0,0,0,0,0,-4.0983,-4.0997,-4.1175,-4.118,-4.1032,-4.1091,-4.1099,-4.1146,-4.1181,-4.118,-4.1123,-4.1113,-4.1203,-4.1214,-4.1227,-4.1429,-4.1243,-4.1251,-4.1256,-4.1681,-4.1689,-4.1695,0,0,0,0,0,0,-4.0978,-4.1,-4.1172,-4.1087,-4.1106,-4.1101,-4.1155,-4.1151,-4.1181,-4.1187,-4.1185,-4.1156,-4.1199,-4.1214,-4.134,-4.143,-4.1255,-4.1263,-4.1673,-4.1683,-4.1692,-4.1834,0,0,0,0,0,0,-4.0972,-4.0999,-4.1063,-4.1089,-4.1111,-4.1284,-4.1161,-4.1157,-4.1197,-4.1184,-4.1217,-4.1217,-4.1195,-4.1328,-4.1349,-4.1439,-4.127,-4.1665,-4.1678,-4.1689,-4.1822,-4.1848,-4.187,0,0,0,0,0,-4.0963,-4.1101,-4.1067,-4.1089,-4.1192,-4.1289,-4.1302,-4.1274,-4.1204,-4.1269,-4.1273,-4.1216,-4.1417,-4.1342,-4.1365,-4.1459,-4.166,-4.1674,-4.1688,-4.1811,-4.1843,-4.1869,0,0,0,0,0,0,-4.1087,-4.1103,-4.1066,-4.1216,-4.1252,-4.1271,-4.1352,-4.1308,-4.1365,-4.1351,-4.1313,-4.1322,-4.1457,-4.147,-4.1386,-4.1625,-4.1527,-4.1546,-4.1612,-4.1642,-4.1666,-4.1661,-4.1278,0,0,0,0,0,-4.1131,-4.1209,-4.1219,-4.135,-4.137,-4.1358,-4.14,-4.1374,-4.141,-4.1426,-4.1438,-4.1476,-4.1547,-4.1595,-4.1661,-4.1822,-4.1829,-4.1898,-4.1922,-4.1942,-4.196,-4.2047,-4.2079,-4.1742,-4.1742,-4.1742,0,0,-4.1224,-4.1243,-4.1294,-4.1375,-4.14,-4.1482,-4.1372,-4.1463,-4.1523,-4.1439,-4.1559,-4.157,-4.1609,-4.1754,-4.1818,-4.1769,-4.2054,-4.196,-4.1976,-4.1983,-4.2065,-4.2097,-4.2125,-4.1752,-4.175,-4.1749,0,0,-4.1435,-4.1457,-4.1568,-4.1596,-4.1635,-4.1626,-4.1653,-4.1679,-4.1683,-4.1802,-4.1741,-4.1812,-4.1936,-4.1966,-4.1998,-4.2221,-4.2172,-4.2243,-4.237,-4.2455,-4.2482,-4.2505,-4.2586,-4.2615,-4.2261,-4.2261,-4.2261,0,-4.1546,-4.1667,-4.1632,-4.1727,-4.1765,-4.1692,-4.1805,-4.1833,-4.1892,-4.192,-4.1864,-4.2017,-4.2039,-4.219,-4.2244,-4.2272,-4.2302,-4.224,-4.2481,-4.2504,-4.2525,-4.2601,-4.2632,-4.227,-4.2269,-4.2268,-4.2267,0,-4.1802,-4.1886,-4.1971,-4.203,-4.2077,-4.2181,-4.2162,-4.2214,-4.2184,-4.2182,-4.2305,-4.2327,-4.2397,-4.243,-4.2403,-4.2578,-4.2547,-4.2486,-4.2387,-4.2566,-4.2638,-4.2666,-4.2282,-4.2279,-4.2276,-4.2274,0,0,-4.2095,-4.2132,-4.2164,-4.219,-4.2227,-4.2292,-4.2392,-4.246,-4.2506,-4.2548,-4.2633,-4.2738,-4.2683,-4.2719,-4.2694,-4.2768,-4.2945,-4.2699,-4.2699,-4.2745,-4.3141,-4.3187,-4.3222,-4.2911,-4.2916,-4.2921,-4.3138,0,-4.2307,-4.2481,-4.2452,-4.2621,-4.2699,-4.263,-4.2717,-4.275,-4.275,-4.2817,-4.2816,-4.2893,-4.2812,-4.2834,-4.2905,-4.2908,-4.3024,-4.2892,-4.299,-4.2994,-4.2984,-4.3259,-4.3308,-4.3512,-4.3165,-4.317,-4.3173,0,-4.2578,-4.2631,-4.2808,-4.2833,-4.2864,-4.2944,-4.3003,-4.3067,-4.3103,-4.3098,-4.3138,-4.3099,-4.32,-4.3097,-4.3236,-4.3147,-4.3185,-4.3193,-4.32,-4.321,-4.3096,-4.3277,-4.3576,-4.3608,-4.3217,-4.3213,-4.321,0,-4.2776,-4.2891,-4.3011,-4.3035,-4.3067,-4.3125,-4.3141,-4.3171,-4.3213,-4.3265,-4.3292,-4.3356,-4.3391,-4.3441,-4.342,-4.3347,-4.3564,-4.3459,-4.3563,-4.3564,-4.3613,-4.3611,-4.3924,-4.3636,-4.3635,-4.3634,-4.3634,0,-4.3017,-4.3129,-4.3101,-4.3175,-4.3298,-4.3263,-4.3386,-4.3393,-4.342,-4.3495,-4.3439,-4.3511,-4.3478,-4.3548,-4.3532,-4.365,-4.3666,-4.3665,-4.366,-4.3671,-4.3672,-4.3697,-4.3683,-4.3643,-4.3641,-4.3639,-4.3638,0,-4.326,-4.3245,-4.3373,-4.3392,-4.34,-4.3489,-4.3506,-4.3576,-4.3571,-4.3667,-4.3687,-4.368,-4.3759,-4.3743,-4.383,-4.3819,-4.3968,-4.3944,-4.3956,-4.3951,-4.4056,-4.4047,-4.4399,-4.4444,-4.4124,-4.4127,-4.413,0,-4.3416,-4.3499,-4.3528,-4.3574,-4.3594,-4.3669,-4.3712,-4.3681,-4.3728,-4.3775,-4.3839,-4.3913,-4.3971,-4.41,-4.4103,-4.4169,-4.4148,-4.4266,-4.4157,-4.4166,-4.4151,-4.4147,-4.4156,-4.4289,-4.4292,-4.4295,-4.4297,0,-4.3694,-4.3683,-4.3746,-4.3808,-4.3861,-4.3908,-4.395,-4.3991,-4.3963,-4.4019,-4.4098,-4.4143,-4.4231,-4.4306,-4.4367,-4.4384,-4.4338,-4.4331,-4.4359,-4.4373,-4.4377,-4.4377,-4.4017,-4.4324,-4.4321,-4.4319,-4.4318,-4.4317,-4.3899,-4.397,-4.4002,-4.4075,-4.4103,-4.4143,-4.421,-4.4213,-4.4279,-4.4348,-4.4325,-4.4417,-4.445,-4.4527,-4.4551,-4.4623,-4.4578,-4.4618,-4.4629,-4.464,-4.4653,-4.4364,-4.4633,-4.4633,-4.4632,-4.4631,-4.4631,0,-4.4176,-4.4192,-4.4259,-4.4319,-4.4377,-4.4326,-4.437,-4.4422,-4.4503,-4.4537,-4.4595,-4.4687,-4.4759,-4.4767,-4.4835,-4.489,-4.4871,-4.4909,-4.4906,-4.4911,-4.4688,-4.4658,-4.4924,-4.4924,-4.4924,-4.4924,-4.4924,-4.4924,-4.4327,-4.4445,-4.4438,-4.457,-4.4585,-4.4674,-4.4703,-4.474,-4.4768,-4.4873,-4.4932,-4.4937,-4.4961,-4.503,-4.5094,-4.5094,-4.5122,-4.517,-4.5163,-4.4955,-4.4926,-4.4898,-4.487,-4.5176,-4.5176,-4.5379,-4.5381,-4.5382]},{"header":{"parameterUnit":"m.s-1","parameterCategory":1,"la1":30.2991,"la2":30.254,"lo1":-89.0895,"lo2":-89.0444,"dy":0.0017,"dx":0.0017,"nx":28,"ny":28,"refTime":"2025-01-04T09:00:00:Z","depth":0,"parameterNumber":3,"parameterNumberName":"V-component_of_WINDS"},"data":[0,0,0,0,0,0,0,0,0,0,0,0,0,0,0,0,0,0,0,0,0,0,0,0,0,0,0,0,0,0,0,0,0,0,0,0,0,0,0,0,0,0,0,0,0,0,0,0,0,0,0,0,0,0,0,0,0,0,-4.0847,-4.0848,0,-4.092,-4.092,-4.0921,-4.0863,-4.0861,-4.0858,-4.0856,-4.0928,-4.0932,-4.0937,0,0,0,0,0,0,0,0,0,0,0,0,0,-4.0656,-4.066,-4.0847,-4.0848,-4.0849,-4.0919,-4.092,-4.0921,-4.0864,-4.0861,-4.0858,-4.0855,-4.0927,-4.0932,-4.0937,0,0,0,0,0,0,0,0,0,0,0,0,0,-4.0735,-4.0661,-4.0847,-4.0829,-4.0828,-4.0919,-4.092,-4.0922,-4.0864,-4.0861,-4.0857,-4.0854,-4.0925,-4.0932,-4.0938,-4.105,0,0,-4.0957,-4.096,0,0,0,0,0,0,0,0,-4.0731,-4.0742,-4.0831,-4.083,-4.0829,-4.0879,-4.088,-4.0965,-4.0865,-4.0851,-4.0856,-4.0852,-4.0915,-4.0922,-4.0943,-4.1054,-4.1057,-4.0958,-4.0961,-4.0964,-4.0966,0,0,0,0,0,0,0,-4.0725,-4.0739,-4.0876,-4.0832,-4.0831,-4.0816,-4.0823,-4.0895,-4.0902,-4.0851,-4.0847,-4.0857,-4.0914,-4.0937,-4.0945,-4.1058,-4.0957,-4.0963,-4.0967,-4.0969,-4.1263,-4.1267,0,0,0,0,0,0,-4.0722,-4.0734,-4.0873,-4.0878,-4.077,-4.0822,-4.083,-4.0867,-4.0901,-4.0903,-4.086,-4.0854,-4.0928,-4.0937,-4.0947,-4.108,-4.0964,-4.097,-4.0974,-4.1259,-4.1264,-4.1268,0,0,0,0,0,0,-4.0718,-4.0735,-4.087,-4.0805,-4.0821,-4.083,-4.0871,-4.087,-4.0893,-4.0908,-4.0908,-4.0883,-4.0926,-4.0938,-4.1025,-4.1082,-4.0973,-4.0979,-4.1254,-4.126,-4.1266,-4.1348,0,0,0,0,0,0,-4.0713,-4.0734,-4.0778,-4.0807,-4.0825,-4.0949,-4.0874,-4.0874,-4.0905,-4.0898,-4.093,-4.0931,-4.0924,-4.1016,-4.1031,-4.1089,-4.0984,-4.1249,-4.1257,-4.1264,-4.1341,-4.1356,-4.137,0,0,0,0,0,-4.0706,-4.0798,-4.078,-4.0797,-4.088,-4.0952,-4.0962,-4.0952,-4.091,-4.0953,-4.0962,-4.093,-4.1073,-4.1025,-4.1042,-4.1102,-4.1245,-4.1255,-4.1263,-4.1334,-4.1353,-4.137,0,0,0,0,0,0,-4.0775,-4.0801,-4.0782,-4.0886,-4.0917,-4.0942,-4.0997,-4.0973,-4.1017,-4.1008,-4.0993,-4.1001,-4.1092,-4.1106,-4.1052,-4.1212,-4.1152,-4.1165,-4.12,-4.1219,-4.1233,-4.1228,-4.0989,0,0,0,0,0,-4.0802,-4.0859,-4.0879,-4.0969,-4.0985,-4.0988,-4.1019,-4.1009,-4.104,-4.1053,-4.1068,-4.11,-4.1151,-4.1186,-4.1234,-4.1342,-4.1348,-4.1392,-4.1406,-4.1418,-4.143,-4.1487,-4.1506,-4.1298,-4.1298,-4.1297,0,0,-4.0859,-4.088,-4.0917,-4.0983,-4.1006,-4.1064,-4.1,-4.1065,-4.1108,-4.1063,-4.1146,-4.1158,-4.1192,-4.1289,-4.1333,-4.1304,-4.1488,-4.143,-4.1439,-4.1444,-4.1498,-4.1518,-4.1535,-4.1304,-4.1303,-4.1302,0,0,-4.0992,-4.1015,-4.1092,-4.1116,-4.1151,-4.1153,-4.1171,-4.12,-4.1206,-4.1289,-4.1256,-4.1307,-4.1396,-4.1421,-4.1446,-4.1588,-4.156,-4.1604,-4.1681,-4.1736,-4.1753,-4.1767,-4.1817,-4.1835,-4.1615,-4.1615,-4.1615,0,-4.1058,-4.1146,-4.1134,-4.1201,-4.123,-4.1192,-4.1269,-4.1293,-4.1343,-4.1363,-4.1329,-4.144,-4.1461,-4.1563,-4.1597,-4.1619,-4.1638,-4.16,-4.1751,-4.1766,-4.1779,-4.1826,-4.1845,-4.162,-4.1619,-4.1619,-4.1618,0,-4.1225,-4.1286,-4.1344,-4.1393,-4.1428,-4.15,-4.1498,-4.1535,-4.1521,-4.1525,-4.161,-4.1632,-4.1684,-4.1708,-4.1695,-4.1808,-4.1789,-4.1754,-4.1693,-4.1804,-4.1848,-4.1866,-4.1627,-4.1625,-4.1624,-4.1623,0,0,-4.1404,-4.1445,-4.1466,-4.1488,-4.1524,-4.157,-4.164,-4.1691,-4.1723,-4.1758,-4.1815,-4.1891,-4.1858,-4.1886,-4.1875,-4.1924,-4.2034,-4.1883,-4.1883,-4.191,-4.2159,-4.2185,-4.2207,-4.2016,-4.2019,-4.2022,-4.2156,0,-4.1539,-4.1661,-4.1651,-4.1765,-4.1821,-4.1785,-4.1845,-4.1873,-4.1879,-4.1926,-4.1932,-4.1986,-4.194,-4.1956,-4.2003,-4.2011,-4.2084,-4.2001,-4.2068,-4.207,-4.2061,-4.223,-4.2258,-4.2384,-4.2174,-4.2176,-4.2179,0,-4.1713,-4.1754,-4.1874,-4.1901,-4.1924,-4.1978,-4.2023,-4.2069,-4.21,-4.21,-4.2131,-4.2112,-4.218,-4.2118,-4.2212,-4.2156,-4.2182,-4.219,-4.2195,-4.2201,-4.2131,-4.224,-4.2424,-4.2443,-4.2206,-4.2204,-4.2202,0,-4.1831,-4.1916,-4.1999,-4.2018,-4.2052,-4.209,-4.2106,-4.2133,-4.2164,-4.2203,-4.2223,-4.227,-4.2295,-4.2331,-4.2325,-4.228,-4.242,-4.2357,-4.2422,-4.2422,-4.2453,-4.2451,-4.2643,-4.2471,-4.247,-4.247,-4.2469,0,-4.1982,-4.2057,-4.2052,-4.2103,-4.2185,-4.2173,-4.2254,-4.2265,-4.2289,-4.234,-4.2312,-4.2361,-4.2349,-4.2397,-4.2392,-4.247,-4.2482,-4.2484,-4.2481,-4.2486,-4.2486,-4.2503,-4.2494,-4.2475,-4.2474,-4.2473,-4.2472,0,-4.2128,-4.2128,-4.2216,-4.224,-4.2247,-4.2307,-4.2327,-4.2374,-4.2377,-4.2443,-4.2457,-4.2462,-4.2517,-4.2514,-4.2576,-4.2573,-4.2669,-4.2656,-4.2659,-4.2656,-4.272,-4.2714,-4.293,-4.2958,-4.2767,-4.2769,-4.2771,0,-4.2224,-4.2281,-4.2311,-4.2344,-4.2362,-4.2415,-4.2446,-4.2436,-4.2469,-4.2508,-4.255,-4.2603,-4.2644,-4.2733,-4.2742,-4.2789,-4.2777,-4.285,-4.2784,-4.2787,-4.2778,-4.2774,-4.2779,-4.2862,-4.2865,-4.2866,-4.2868,0,-4.2395,-4.2392,-4.2439,-4.2486,-4.2524,-4.256,-4.2593,-4.2621,-4.2614,-4.2653,-4.2709,-4.2741,-4.2804,-4.2856,-4.2901,-4.2916,-4.2891,-4.2888,-4.2906,-4.2911,-4.291,-4.2911,-4.2693,-4.2883,-4.2882,-4.2881,-4.288,-4.2879,-4.2519,-4.2567,-4.2596,-4.2648,-4.2672,-4.2703,-4.2749,-4.2757,-4.2804,-4.2855,-4.2846,-4.2908,-4.2936,-4.2993,-4.3012,-4.3061,-4.3034,-4.306,-4.3066,-4.3072,-4.3079,-4.2902,-4.3069,-4.3068,-4.3068,-4.3067,-4.3067,0,-4.2688,-4.2704,-4.2753,-4.28,-4.2841,-4.2814,-4.2849,-4.2885,-4.294,-4.2968,-4.301,-4.3073,-4.3124,-4.3136,-4.3183,-4.322,-4.3209,-4.3232,-4.323,-4.3233,-4.31,-4.308,-4.324,-4.324,-4.324,-4.324,-4.324,-4.324,-4.2781,-4.2861,-4.2861,-4.2952,-4.2967,-4.3029,-4.3051,-4.3079,-4.3102,-4.3174,-4.3216,-4.3223,-4.3245,-4.3294,-4.3338,-4.334,-4.3359,-4.3387,-4.3384,-4.326,-4.3243,-4.3226,-4.3207,-4.3391,-4.3391,-4.3513,-4.3514,-4.3515]}]]